Voltar ao catálogo

STARLINK-37373

AtivoComunicaçõesSSO
NORAD 68848·PAYLOAD·🇺🇸 United States

Lançado Apr 26, 2026 de Vandenberg Space Force Base

Loading…

Próximas Passagens (próximas 24 horas)

TLE

AtualizadoSource: CelesTrak SupGP

Época: Sep 15, 2026, 04:19 UTC

1 68848C 26094K   26258.18034722 -.00056449  00000+0 -17525-2 0  2584
2 68848  97.2837 271.3617 0001470  88.6415 187.8959 15.33463846    14

Acompanhe STARLINK-37373 em tempo real com AllMySat

Download on the App Store